Regional Weather Roundup
Issued by NWS

Home | Current Version | Previous Version | Text Only | Print | Product List | Glossary On
Versions: 1 2 3 4 5 6 7 8 9 10 11 12 13 14 15 16 17 18 19 20 21 22 23 24 25 26 27 28 29 30 31 32 33 34 35 36 37 38 39 40 41 42 43 44 45 46 47 48 49 50
000
ASUS43 KMPX 240101
RWRMN
WEATHER ROUNDUP FOR MINNESOTA
NATIONAL WEATHER SERVICE TWIN CITIES/CHANHASSEN MN
800 PM CDT SUN JUL 23 2017


NOTE: "FAIR" INDICATES FEW OR NO CLOUDS BELOW 12,000 FEET WITH NO
SIGNIFICANT WEATHER AND/OR OBSTRUCTIONS TO VISIBILITY. N/A MEANS
CURRENT SKY AND/OR WEATHER CONDITIONS ARE NOT AVAILABLE.

MNZ060>063-068>070-240200-
   Twin Cities Metro

CITY           SKY/WX    TMP DP  RH WIND       PRES   REMARKS
TWIN CITIES    PTCLDY    73  55  53 NE13G22   29.97S
ST PAUL        CLEAR     72  58  61 NE13      29.97S
CRYSTAL        CLEAR     72  54  53 NE10      29.96S
BLAINE         PTCLDY    73  57  56 NE7       29.98R
LAKEVILLE      CLEAR     70  57  64 NE9       29.97S
EDEN PRAIRIE   CLEAR     73  57  57 NE10      29.96R
SOUTH ST PAUL  CLEAR     72  56  56 NE8       29.97S
LAKE ELMO      FAIR      70  59  68 NE9       29.99S
$$
MNZ001>005-007-008-013>017-022>024-027-028-240200-
   Northwest Minnesota

CITY           SKY/WX    TMP DP  RH WIND       PRES   REMARKS
BEMIDJI        CLEAR     70  57  62 SW3       30.01S
HALLOCK        SUNNY     77  63  61 CALM      29.95F
ROSEAU         CLEAR     75  66  73 CALM      29.97F
WARROAD        CLEAR     73  63  68 E3        29.98F
CROOKSTON      PTSUNNY   73  64  73 CALM      29.97S
FOSSTON        CLEAR     73  63  68 CALM      30.00S
DETROIT LAKES  PTCLDY    72  59  64 E5        30.01S
MOORHEAD       CLEAR     75  61  60 CALM      29.98S
PARK RAPIDS    CLEAR     72  55  55 NE7       30.01S
MAHNOMEN       FAIR      73  60  63 CALM      29.99S
$$
MNZ006-009>011-018-025>026-240200-
   North Central Minnesota

CITY           SKY/WX    TMP DP  RH WIND       PRES   REMARKS
BAUDETTE       CLEAR     74  60  61 NE3       29.98S
FLAG ISLAND    CLEAR     75  55  50 S3        29.97S
INTL FALLS     CLEAR     73  53  49 S3        29.98F
WASKISH        CLEAR     73  61  64 W5        29.99S
BIG FORK       CLEAR     68  59  73 CALM      30.00S
LONGVILLE      CLEAR     70  61  73 CALM      30.01S
GRAND RAPIDS   CLEAR     69  60  73 CALM      30.03R
CRANE LAKE     CLEAR     70  57  64 CALM      30.01R
ORR            CLEAR     66  55  68 CALM      29.98S
COOK           CLEAR     70  57  64 CALM      30.00S
WALKER         FAIR      69  56  62 CALM      30.01S
$$
MNZ012-019>021-037-240200-
   Northeast Minnesota

CITY           SKY/WX    TMP DP  RH WIND       PRES   REMARKS
DULUTH         PTCLDY    62  58  86 E3        30.03R
ELY            MOCLDY    70  57  64 S8        30.01S
HIBBING        CLEAR     69  58  67 CALM      30.00S
EVELETH        CLEAR     73  58  58 CALM      30.01S
DULUTH HARBOR  CLEAR     63  59  88 NE3       30.03S
TWO HARBORS    CLEAR     64  57  77 E5        30.01S
GRAND MARAIS     N/A     56  55  97 SW6       30.01S
G MARAIS ARPRT CLEAR     61  46  59 CALM      30.05S
$$
MNZ029>031-032-039>041-046>048-054>057-064-240200-
   West Central Minnesota

CITY           SKY/WX    TMP DP  RH WIND       PRES   REMARKS
FERGUS FALLS   CLEAR     73  59  60 CALM      29.98S
WHEATON        CLEAR     72  57  60 CALM      30.01S
MORRIS         CLEAR     75  61  60 N3        29.99R
ALEXANDRIA     CLOUDY    72  61  68 NE7       30.01S
ELBOW LAKE     FAIR      72  62  71 CALM      30.00S
WADENA         CLEAR     70  59  68 E5        30.00S
GLENWOOD       PTCLDY    72  61  68 N5        30.00S
APPLETON       CLEAR     75  59  57 CALM      29.98S
BENSON         CLEAR     73  61  64 N3        30.00S
ORTONVILLE     CLEAR     73  57  56 CALM      29.99F
MADISON        CLEAR     75  59  57 N3        29.99F
WILLMAR        FAIR      73  63  68 NE6       30.00S
$$
MNZ033>034-036-042>043-049>051-058-059-240200-
   Central Minnesota

CITY           SKY/WX    TMP DP  RH WIND       PRES   REMARKS
ST CLOUD       CLEAR     71  61  70 E6        29.99R
SAUK CENTRE    MOCLDY    72  58  63 NE3       30.00R
PAYNESVILLE    CLEAR     74  58  58 NE8       29.99S
AITKIN         CLEAR     68  59  73 NE3       30.00S
PINE RIVER     CLEAR     72  61  68 CALM      30.03F
BRAINERD       CLEAR     70  59  68 E5        30.00R
STAPLES        CLEAR     72  57  60 NE3       30.00S
LONG PRAIRIE   FAIR      70  59  68 N3        30.00S
LITTLE FALLS   MOCLDY    70  59  68 CALM      30.00S
LITCHFIELD     CLEAR     73  61  64 NE6       29.99R
BUFFALO        CLEAR     71  57  61 NE6       29.99S
MAPLE LAKE     CLEAR     73  60  65 NE8       29.99S
HUTCHINSON     CLEAR     74  61  64 N5        29.99S
$$
MNZ037-044-045-052-053-240200-
   East Central Minnesota

CITY           SKY/WX    TMP DP  RH WIND       PRES   REMARKS
PRINCETON      CLOUDY    72  61  68 NE7       29.99S
MORA           CLEAR     66  55  68 NE5       30.02S
CAMBRIDGE      CLEAR     72  57  60 N5        29.99R
RUSH CITY      CLEAR     66  58  75 NE3       30.01R
MOOSE LAKE     CLEAR     66  55  68 E3        30.00S
HINCKLEY       FAIR      68  59  73 CALM      30.01S
CLOQUET        CLEAR     64  55  72 E5        30.03R
MCGREGOR       CLEAR     68  59  73 E3        30.01F
$$
MNZ071>073-080-081-089-090-097-098-240200-
   Southwest Minnesota

CITY           SKY/WX    TMP DP  RH WIND       PRES   REMARKS
MONTEVIDEO     CLEAR     73  57  56 NE5       29.99S
GRANITE FALLS  CLEAR     75  62  64 NW5       30.00S
CANBY          CLEAR     74  58  57 CALM      30.01S
MARSHALL       CLEAR     72  61  68 N3        30.00S
REDWOOD FALLS  CLEAR     75  58  55 N3        29.97S
OLIVIA         PTCLDY    73  63  68 NE5       29.98S
PIPESTONE      CLEAR     72  59  64 NE5       30.02R
WINDOM         CLEAR     72  61  68 N5        30.00S
WORTHINGTON    PTCLDY    71  59  65 N6        30.01S
JACKSON        CLOUDY    72  57  60 CALM      30.00S
SLAYTON        HVY RAIN  70  58  66 N5        30.02S
$$
MNZ065>067-074>077-082>085-091>093-240200-
   South Central Minnesota

CITY           SKY/WX    TMP DP  RH WIND       PRES   REMARKS
MANKATO        CLOUDY    73  61  65 N10       29.97R
NEW ULM        MOCLDY    73  59  60 NW5       29.97S
ST JAMES       CLEAR     72  61  68 CALM      29.98F
FAIRMONT       CLEAR     72  62  71 N6        29.98S
GLENCOE        CLEAR     74  63  69 N3        29.97S
FARIBAULT      CLEAR     70  59  68 NE7       29.97S
OWATONNA       MOCLDY    72  61  68 NE10      29.97R
WASECA         CLOUDY    72  61  68 N7        29.98R
ALBERT LEA     CLEAR     72  61  68 N5        29.96S
$$
MNZ078>079-086>088-094>096-240200-
   Southeast Minnesota

CITY           SKY/WX    TMP DP  RH WIND       PRES   REMARKS
ROCHESTER      PTCLDY    68  59  73 NE15      29.97R
RED WING       CLOUDY    70  55  60 NE9       29.96S
STANTON        CLEAR     71  58  64 NE7       29.96R
DODGE CENTER   CLEAR     70  57  64 NE9       29.97R
WINONA         PTCLDY    70  57  64 N7        29.94S
AUSTIN         MOCLDY    72  61  68 N9        29.95S
PRESTON        PTCLDY    68  59  72 N10       29.95R
$$
ABBREVIATIONS USED IN REMARKS
   TC - TEMPERATURES IN CELSIUS
  WCI - WIND CHILL INDEX
   HX - HEAT INDEX
  VSB - VISIBILITY
$$




USA.gov is the U.S. government's official web portal to all federal, state and local government web resources and services.